Regional Weather Roundup
Issued by NWS

Home | Current Version | Previous Version | Graphics & Text | Print | Product List | Glossary On
Versions: 1 2 3 4 5 6 7 8 9 10 11 12 13 14 15 16 17 18 19 20 21 22 23 24 25 26 27 28 29 30 31 32 33 34 35 36 37 38 39 40 41 42 43 44 45 46 47 48 49 50
000
ASUS45 KPSR 211910
RWRAZ

ARIZONA REGIONAL HOURLY WEATHER ROUNDUP
NATIONAL WEATHER SERVICE PHOENIX AZ
1200 PM MST SUN SEP 21 2014

NOTE: FAIR INDICATES FEW OR NO CLOUDS BELOW 12,000 FEET WITH NO
SIGNIFICANT WEATHER AND/OR OBSTRUCTIONS TO VISIBILITY.

AZZ001>003-036-212000-
NORTHWEST ARIZONA

CITY           SKY/WX    TMP DP  RH WIND       PRES   REMARKS
BULLHEAD CITY  SUNNY     93  57  29 SW8       29.90F
KINGMAN        MOSUNNY   87  43  21 SW14      30.06F
$$

AZZ004>008-015-016-018-212000-
NORTH CENTRAL ARIZONA

CITY           SKY/WX    TMP DP  RH WIND       PRES   REMARKS
GRAND CANYON   PTSUNNY   71  52  50 SW10      30.29F
PRESCOTT       MOSUNNY   79  44  28 CALM      30.20F
FLAGSTAFF      MOSUNNY   70  53  54 SW12G17   30.33F
PAYSON         MOSUNNY   79  59  50 VRB7G15   30.22F
PAGE           MOSUNNY   76  58  53 N7        30.17F
$$

AZZ009>014-017-212000-
NORTHEAST ARIZONA

CITY           SKY/WX    TMP DP  RH WIND       PRES   REMARKS
WINSLOW        MOSUNNY   80  56  43 E8        30.18F
SAINT JOHNS    SUNNY     83  55  38 NE9       30.22F
SHOW LOW       MOSUNNY   73  54  49 S13       30.30F
$$

AZZ023-212000-
GREATER PHOENIX AREA

CITY           SKY/WX    TMP DP  RH WIND       PRES   REMARKS
PHOENIX        MOSUNNY   95  54  25 E5        29.92F
BUCKEYE          N/A     93  48  21 CALM      29.93F
GLENDALE       MOSUNNY   95  50  21 CALM      29.91F
LUKE AFB       SUNNY     93  52  24 CALM      29.93F
DEER VALLEY    MOSUNNY   92  46  20 CALM      29.95F
SCOTTSDALE     MOSUNNY   91  58  32 CALM      29.97F
MESA-FALCON    MOSUNNY   91  50  24 SW8       29.95F
MESA-GATEWAY   MOSUNNY   93  52  24 SE6       29.97F
CHANDLER       MOSUNNY   91  50  24 VRB6      29.95
$$

AZZ027-028-212000-
SOUTHWEST MARICOPA COUNTY AND PINAL COUNTY

CITY           SKY/WX    TMP DP  RH WIND       PRES   REMARKS
CASA GRANDE    SUNNY     91  46  21 N3        29.96F
$$

AZZ503-504-507>509-212000-
SOUTHEAST ARIZONA

CITY           SKY/WX    TMP DP  RH WIND       PRES   REMARKS
TUCSON         MOSUNNY   88  62  41 CALM      30.04F
DAVIS-MONTHAN  SUNNY     87  63  44 N2        30.02F
RYAN FIELD       N/A     90  57  33 CALM      30.03F
NOGALES        PTSUNNY   84  64  50 W3        30.10F
SIERRA VISTA   PTSUNNY   79  63  57 E6        30.16F
DOUGLAS        PTSUNNY   81  65  58 VRB6      30.12F
SAFFORD        MOSUNNY   87  65  47 S9G16     30.06F
$$

AZZ020-021-025-026-031-212000-
SOUTHWEST ARIZONA

CITY           SKY/WX    TMP DP  RH WIND       PRES   REMARKS
YUMA           SUNNY     97  57  26 CALM      29.85F
$$

CAZ031-033-041-043-047-048-061-212000-
SOUTHERN CALIFORNIA

CITY           SKY/WX    TMP DP  RH WIND       PRES   REMARKS
DOWNTOWN L.A.  MOSUNNY   77  60  55 CALM      29.98F
L.A. AIRPORT   MOSUNNY   73  59  60 SW5       29.99F
SAN DIEGO      MOSUNNY   77  58  51 W10       29.98F
BURBANK        SUNNY     74  57  55 VRB5      29.99F
ONTARIO        MOSUNNY   71  59  65 VRB3      30.00F
RIVERSIDE      CLOUDY    70  60  70 W6        30.00F
PALM SPRINGS   SUNNY     92  47  21 VRB3      29.90F
EL CENTRO NAS  SUNNY     94  49  21 VRB3      29.85F
IMPERIAL       SUNNY     94  44  17 NW3       29.84F
BLYTHE         SUNNY     94  56  27 S7        29.87F
$$

NVZ020-UTZ003-212000-
SOUTHERN NEVADA-UTAH

CITY           SKY/WX    TMP DP  RH WIND       PRES   REMARKS
LAS VEGAS      MOSUNNY   85  57  38 VRB6      29.97F
SALT LAKE CITY LGT RAIN  67  59  75 SE8       30.18F
$$

NMZ009-TXZ055-212000-
NEW MEXICO-WEST TEXAS

CITY           SKY/WX    TMP DP  RH WIND       PRES   REMARKS
ALBUQUERQUE    PTSUNNY   80  52  37 SE15G29   30.28F
EL PASO        PTSUNNY   84  62  47 CALM      30.13F
$$


........................KEY........................
SKY/WX - SKY CONDITION/WEATHER
TMP    - TEMPERATURE IN FAHRENHEIT
DP     - DEW POINT IN FAHRENHEIT
RH     - RELATIVE HUMIDITY IN PERCENT
WIND   - DIRECTION AND SPEED IN MILES PER HOUR (MPH)
VRB    - VARIABLE WIND DIRECTION
PRES   - MEAN SEA LEVEL PRESSURE IN INCHES OF MERCURY
         F - FALLING PRESSURE   R - RISING PRESSURE
         S - STEADY PRESSURE
VSB    - VISIBILITY IN MILES
HX     - HEAT INDEX IN FAHRENHEIT
WCI    - WIND CHILL INDEX IN FAHRENHEIT
TC     - TEMPERATURE IN CELSIUS WHICH IS ALSO KNOWN AS
         TEMPERATURE IN CENTIGRADE
AFB    - AIR FORCE BASE
         LUKE AFB IS LUKE AIR FORCE BASE
         DAVIS-MONTHAN IS DAVIS-MONTHAN AIR FORCE BASE
NAS    - NAVAL AIR STATION
         EL CENTRO NAS IS EL CENTRO NAVAL AIR STATION
N/A    - NOT AVAILABLE


USA.gov is the U.S. government's official web portal to all federal, state and local government web resources and services.